[[{"header":{"parameterUnit":"m.s-1","parameterCategory":2,"la1":30.2991,"la2":30.254,"lo1":-89.0895,"lo2":-89.0444,"dy":0.0017,"dx":0.0017,"nx":28,"ny":28,"refTime":"2025-06-07T03:00:00:Z","depth":"0","parameterNumber":2,"parameterNumberName":"U-component_of_CURRENTS"},"data":[0,0,0,0,0,0,0,0,0,0,0,0,0,0,0,0,0,0,0,0,0,0,0,0,0,0,0,0,0,0,0,0,0,0,0,0,0,0,0,0,0,0,0,0,0,0,0,0,0,0,0,0,0,0,0,0,0,0,0.3453,0.3453,0,0.348,0.348,0.348,0.3489,0.3489,0.3489,0.349,0.3324,0.332,0.3315,0,0,0,0,0,0,0,0,0,0,0,0,0,0.3513,0.351,0.3453,0.3453,0.3454,0.348,0.348,0.348,0.3489,0.3489,0.3489,0.349,0.3326,0.332,0.3315,0,0,0,0,0,0,0,0,0,0,0,0,0,0.3504,0.351,0.3453,0.3464,0.3465,0.348,0.348,0.348,0.3489,0.3489,0.349,0.349,0.3327,0.3321,0.3314,0.3266,0,0,0.3293,0.329,0,0,0,0,0,0,0,0,0.3505,0.3502,0.3462,0.3463,0.3465,0.3484,0.3441,0.34,0.3489,0.3477,0.349,0.349,0.3361,0.3352,0.3355,0.3259,0.3251,0.3292,0.3288,0.3285,0.3283,0,0,0,0,0,0,0,0.3505,0.3501,0.346,0.3462,0.3464,0.3504,0.3501,0.3434,0.3411,0.3478,0.3479,0.3487,0.3361,0.3362,0.335,0.3249,0.3293,0.3287,0.3282,0.328,0.3183,0.3184,0,0,0,0,0,0,0.3502,0.3501,0.3459,0.3461,0.349,0.3502,0.3499,0.3475,0.3416,0.341,0.3487,0.3488,0.3373,0.3358,0.3344,0.3297,0.3285,0.3279,0.3275,0.3181,0.3183,0.3185,0,0,0,0,0,0,0.3502,0.3496,0.3458,0.3487,0.3485,0.35,0.3473,0.3476,0.3477,0.3426,0.3415,0.3486,0.3373,0.3354,0.3288,0.329,0.3276,0.327,0.318,0.3182,0.3184,0.3193,0,0,0,0,0,0,0.3503,0.3496,0.348,0.3485,0.3483,0.3456,0.3473,0.3476,0.3483,0.3483,0.3421,0.3407,0.3372,0.3298,0.3281,0.328,0.3264,0.3178,0.3181,0.3183,0.3191,0.3196,0.32,0,0,0,0,0,0.3505,0.3476,0.3478,0.3474,0.3458,0.3456,0.3457,0.3469,0.3482,0.3473,0.3441,0.3409,0.3307,0.3292,0.3272,0.327,0.3176,0.318,0.3183,0.3189,0.3195,0.32,0,0,0,0,0,0,0.3492,0.3475,0.3477,0.3444,0.3448,0.3458,0.345,0.3468,0.3441,0.3434,0.3394,0.3377,0.3331,0.3303,0.329,0.3262,0.3249,0.3248,0.3261,0.3265,0.327,0.3254,0.3259,0,0,0,0,0,0.3483,0.3456,0.3455,0.3431,0.3424,0.3439,0.3442,0.3452,0.3434,0.3426,0.3388,0.3359,0.3331,0.3299,0.3264,0.3216,0.3219,0.3219,0.3223,0.3227,0.3206,0.3262,0.3269,0.3196,0.3196,0.3196,0,0,0.3476,0.3462,0.345,0.3428,0.3425,0.3405,0.3438,0.3433,0.3423,0.3404,0.336,0.3354,0.3325,0.3291,0.327,0.3261,0.3246,0.3231,0.3233,0.3211,0.3266,0.3273,0.3279,0.3199,0.3198,0.3198,0,0,0.3434,0.3426,0.3382,0.3381,0.3376,0.3385,0.3383,0.3386,0.3387,0.3354,0.336,0.3358,0.329,0.3292,0.328,0.3284,0.327,0.3288,0.3279,0.3334,0.334,0.3345,0.334,0.3345,0.3288,0.3288,0.3288,0,0.3417,0.3367,0.3375,0.3336,0.3335,0.337,0.3336,0.3341,0.333,0.3326,0.3334,0.3313,0.3294,0.3278,0.3298,0.3288,0.3302,0.3254,0.3338,0.3343,0.3348,0.3342,0.3347,0.3288,0.3288,0.3288,0.3288,0,0.3343,0.3312,0.3288,0.3246,0.3248,0.323,0.3243,0.3242,0.3259,0.3272,0.3267,0.3273,0.3265,0.3285,0.3281,0.3317,0.3307,0.3338,0.3318,0.3356,0.3347,0.3352,0.329,0.3289,0.3289,0.3289,0,0,0.3258,0.3236,0.3226,0.3205,0.3204,0.3195,0.318,0.3176,0.3166,0.319,0.3184,0.32,0.3235,0.3229,0.3257,0.331,0.3366,0.3338,0.3341,0.3318,0.3449,0.323,0.3214,0.3422,0.3424,0.3425,0.3421,0,0.3186,0.3116,0.3129,0.3079,0.3043,0.3085,0.3067,0.3081,0.31,0.3103,0.3159,0.3156,0.3205,0.3215,0.328,0.3341,0.3383,0.3361,0.3427,0.3427,0.3218,0.3214,0.3081,0.3048,0.3426,0.3427,0.3427,0,0.3086,0.3063,0.3,0.2994,0.298,0.2964,0.2963,0.2959,0.2988,0.3006,0.3045,0.3082,0.3142,0.32,0.3312,0.3298,0.3367,0.3425,0.3428,0.3216,0.3217,0.3077,0.3042,0.299,0.3435,0.3434,0.3433,0,0.3006,0.2967,0.2923,0.2919,0.2913,0.2899,0.2906,0.2922,0.2917,0.2952,0.2952,0.303,0.3059,0.318,0.3276,0.3311,0.3394,0.346,0.332,0.3304,0.3192,0.3162,0.3096,0.3547,0.3547,0.3547,0.3547,0,0.2909,0.2866,0.2883,0.2855,0.2814,0.2837,0.28,0.2818,0.2838,0.2819,0.29,0.2894,0.3066,0.3124,0.3246,0.3248,0.3367,0.3285,0.3285,0.3186,0.3157,0.3106,0.3085,0.3547,0.3547,0.3547,0.3547,0,0.2799,0.2807,0.2761,0.2767,0.2766,0.2738,0.2742,0.2718,0.2744,0.2727,0.2736,0.2799,0.2845,0.2969,0.313,0.315,0.3108,0.3205,0.3026,0.3,0.2763,0.2747,0.2523,0.2473,0.3029,0.3024,0.3019,0,0.2703,0.2679,0.2701,0.2686,0.268,0.2658,0.2638,0.2668,0.265,0.2654,0.2636,0.2658,0.2646,0.2726,0.2784,0.2864,0.2899,0.276,0.279,0.2678,0.2668,0.2597,0.2572,0.2668,0.2661,0.2655,0.2651,0,0.2551,0.2592,0.2594,0.2585,0.2563,0.2538,0.2518,0.249,0.251,0.2481,0.2429,0.2415,0.2424,0.2393,0.2435,0.25,0.2568,0.2631,0.2616,0.2414,0.2241,0.2216,0.2714,0.2598,0.2604,0.2607,0.261,0.2612,0.2444,0.2449,0.2486,0.2468,0.2451,0.2401,0.2328,0.2313,0.2254,0.2161,0.2226,0.2127,0.2132,0.214,0.2157,0.2072,0.2154,0.2085,0.2089,0.2039,0.1917,0.2215,0.2028,0.2029,0.2031,0.2032,0.2034,0,0.2291,0.2345,0.235,0.2323,0.2262,0.2293,0.2223,0.2121,0.1993,0.1962,0.1885,0.1802,0.1737,0.176,0.1702,0.1612,0.1616,0.1584,0.1554,0.1577,0.1948,0.186,0.1503,0.1503,0.1503,0.1503,0.1503,0.1503,0.2202,0.2197,0.2241,0.2133,0.2107,0.1957,0.1888,0.1766,0.17,0.1525,0.1435,0.1442,0.1503,0.1418,0.1327,0.1306,0.1279,0.1114,0.1195,0.1559,0.1611,0.1661,0.1577,0.1166,0.1165,0.0801,0.0798,0.0796]},{"header":{"parameterUnit":"m.s-1","parameterCategory":2,"la1":30.2991,"la2":30.254,"lo1":-89.0895,"lo2":-89.0444,"dy":0.0017,"dx":0.0017,"nx":28,"ny":28,"refTime":"2025-06-07T03:00:00:Z","depth":"0","parameterNumber":3,"parameterNumberName":"V-component_of_CURRENTS"},"data":[0,0,0,0,0,0,0,0,0,0,0,0,0,0,0,0,0,0,0,0,0,0,0,0,0,0,0,0,0,0,0,0,0,0,0,0,0,0,0,0,0,0,0,0,0,0,0,0,0,0,0,0,0,0,0,0,0,0,0.0636,0.0637,0,0.0744,0.0745,0.0746,0.0798,0.0798,0.0797,0.0797,0.0801,0.0801,0.0801,0,0,0,0,0,0,0,0,0,0,0,0,0,0.0524,0.0525,0.0636,0.0637,0.0638,0.0744,0.0745,0.0747,0.0798,0.0798,0.0797,0.0797,0.0801,0.0801,0.0801,0,0,0,0,0,0,0,0,0,0,0,0,0,0.0596,0.0526,0.0636,0.0676,0.0681,0.0743,0.0745,0.0747,0.0798,0.0798,0.0797,0.0797,0.0801,0.0801,0.0801,0.0806,0,0,0.0802,0.0802,0,0,0,0,0,0,0,0,0.0592,0.06,0.0669,0.0674,0.0679,0.0757,0.0707,0.0761,0.0798,0.0754,0.0797,0.0797,0.0776,0.0778,0.0801,0.0806,0.0806,0.0802,0.0802,0.0802,0.0802,0,0,0,0,0,0,0,0.0587,0.0596,0.0679,0.067,0.0676,0.0706,0.0716,0.0718,0.0763,0.0758,0.0762,0.0773,0.0778,0.0801,0.0801,0.0806,0.0802,0.0802,0.0802,0.0803,0.0841,0.0842,0,0,0,0,0,0,0.057,0.0591,0.0676,0.0682,0.0634,0.0708,0.0719,0.0732,0.0765,0.0771,0.0773,0.0775,0.0801,0.0801,0.0801,0.0854,0.0802,0.0803,0.0803,0.084,0.0841,0.0842,0,0,0,0,0,0,0.0568,0.0577,0.0671,0.0639,0.0653,0.0709,0.0725,0.0734,0.0759,0.0778,0.0782,0.0787,0.0801,0.0801,0.0827,0.0852,0.0803,0.0803,0.0839,0.084,0.0841,0.0928,0,0,0,0,0,0,0.0564,0.0575,0.0583,0.0638,0.0654,0.0711,0.0725,0.0737,0.0766,0.0769,0.0791,0.0791,0.08,0.0827,0.0827,0.0851,0.0803,0.0838,0.084,0.0841,0.0924,0.0932,0.0939,0,0,0,0,0,0.056,0.0581,0.0582,0.0593,0.0661,0.0711,0.0723,0.0763,0.0766,0.0782,0.0809,0.0791,0.0836,0.0829,0.0829,0.0853,0.0837,0.0839,0.0841,0.0921,0.0931,0.0939,0,0,0,0,0,0,0.0538,0.0589,0.0592,0.0627,0.0661,0.0719,0.074,0.0761,0.0796,0.0795,0.081,0.0813,0.0845,0.0831,0.0821,0.0866,0.083,0.0832,0.089,0.0899,0.0907,0.0908,0.0803,0,0,0,0,0,0.0532,0.0559,0.0604,0.0628,0.0642,0.0686,0.071,0.0735,0.0772,0.0789,0.0809,0.0825,0.0854,0.0862,0.0876,0.0899,0.0881,0.091,0.0918,0.0924,0.0924,0.0939,0.0948,0.0848,0.0848,0.0848,0,0,0.0528,0.056,0.0574,0.0624,0.0651,0.0687,0.0701,0.0737,0.0775,0.0779,0.0833,0.0851,0.0865,0.0908,0.0918,0.0899,0.0942,0.0927,0.0933,0.0929,0.0942,0.0952,0.096,0.0849,0.0849,0.0849,0,0,0.0531,0.0558,0.0576,0.0609,0.065,0.0686,0.0693,0.0748,0.078,0.0827,0.0851,0.0891,0.0914,0.0955,0.0971,0.102,0.0982,0.1009,0.105,0.1065,0.1074,0.1081,0.1066,0.1072,0.1012,0.1012,0.1012,0,0.0513,0.0551,0.0588,0.0616,0.0649,0.0683,0.0712,0.0757,0.0818,0.0853,0.0844,0.0932,0.0943,0.1021,0.1046,0.104,0.1024,0.1022,0.1077,0.1084,0.109,0.1072,0.1077,0.1016,0.1016,0.1015,0.1015,0,0.0535,0.0563,0.0578,0.0627,0.0669,0.0699,0.0761,0.0806,0.084,0.0886,0.0962,0.1001,0.1052,0.1066,0.1074,0.1133,0.1099,0.1089,0.1058,0.1105,0.1083,0.1087,0.1022,0.1021,0.102,0.1018,0,0,0.0493,0.0572,0.0576,0.0602,0.0677,0.0715,0.0785,0.0864,0.0915,0.0973,0.1047,0.1115,0.1134,0.1153,0.1176,0.1195,0.1231,0.116,0.1158,0.1151,0.1238,0.1196,0.1195,0.1228,0.1229,0.123,0.1203,0,0.0487,0.0536,0.059,0.0646,0.0677,0.0749,0.0817,0.0897,0.0961,0.1042,0.1104,0.1169,0.1169,0.1198,0.1226,0.1237,0.1243,0.1237,0.1186,0.1184,0.1148,0.12,0.1142,0.1112,0.1206,0.1207,0.1207,0,0.0491,0.0526,0.0571,0.0664,0.0685,0.073,0.0848,0.0913,0.1036,0.1085,0.1169,0.1214,0.1292,0.1263,0.1304,0.1296,0.1267,0.126,0.1259,0.1191,0.115,0.108,0.1114,0.1118,0.1212,0.1212,0.1211,0,0.0452,0.0522,0.0558,0.0587,0.0692,0.0735,0.0798,0.0919,0.099,0.111,0.1165,0.1258,0.1302,0.1308,0.1308,0.1302,0.1321,0.1308,0.1239,0.1234,0.116,0.1147,0.1197,0.1308,0.1308,0.1308,0.1308,0,0.044,0.047,0.0536,0.0557,0.0619,0.0702,0.0787,0.0868,0.099,0.108,0.1174,0.1251,0.131,0.1343,0.1324,0.1298,0.133,0.1253,0.1235,0.1186,0.1177,0.1154,0.116,0.1307,0.1308,0.1308,0.1308,0,0.0405,0.0442,0.0487,0.0571,0.06,0.0645,0.0772,0.0843,0.0945,0.1065,0.1105,0.1244,0.1288,0.1322,0.1332,0.1306,0.1275,0.1254,0.1181,0.1157,0.11,0.1112,0.1097,0.1141,0.1185,0.1184,0.1183,0,0.0397,0.0411,0.0479,0.0511,0.0548,0.0623,0.0691,0.0809,0.0893,0.106,0.1121,0.1206,0.1282,0.1291,0.1255,0.1215,0.1229,0.1126,0.1113,0.11,0.1101,0.1095,0.1135,0.1041,0.1039,0.1037,0.1036,0,0.0389,0.0402,0.0439,0.0494,0.0551,0.0626,0.0724,0.0782,0.0932,0.1021,0.1142,0.1206,0.123,0.1198,0.1149,0.1116,0.1127,0.109,0.1108,0.1022,0.0989,0.102,0.1039,0.1022,0.1023,0.1024,0.1025,0.1025,0.0384,0.0406,0.045,0.0506,0.0563,0.0642,0.0702,0.0803,0.0913,0.1053,0.1115,0.1192,0.1158,0.1097,0.1052,0.096,0.1015,0.0932,0.0953,0.0952,0.0987,0.0964,0.0912,0.0913,0.0914,0.0914,0.0915,0,0.0404,0.0435,0.0477,0.0545,0.0595,0.0631,0.0745,0.0803,0.0906,0.101,0.1091,0.1112,0.1036,0.0989,0.0861,0.0826,0.0845,0.0836,0.0828,0.0887,0.0879,0.0867,0.0767,0.0767,0.0767,0.0767,0.0767,0.0767,0.0425,0.0467,0.049,0.0568,0.0608,0.068,0.0737,0.0806,0.0888,0.0975,0.1023,0.1087,0.1121,0.0854,0.076,0.0757,0.0829,0.0761,0.0869,0.0858,0.0869,0.088,0.0872,0.0774,0.0774,0.0859,0.086,0.086]}],[{"header":{"parameterUnit":"m.s-1","parameterCategory":2,"la1":30.2991,"la2":30.254,"lo1":-89.0895,"lo2":-89.0444,"dy":0.0017,"dx":0.0017,"nx":28,"ny":28,"refTime":"2025-06-07T03:00:00:Z","depth":"2","parameterNumber":2,"parameterNumberName":"U-component_of_CURRENTS"},"data":[0,0,0,0,0,0,0,0,0,0,0,0,0,0,0,0,0,0,0,0,0,0,0,0,0,0,0,0,0,0,0,0,0,0,0,0,0,0,0,0,0,0,0,0,0,0,0,0,0,0,0,0,0,0,0,0,0,0,0.2791,0.2791,0,0.2888,0.289,0.2893,0.2956,0.2955,0.2954,0.2953,0.2665,0.2658,0.2652,0,0,0,0,0,0,0,0,0,0,0,0,0,0.2584,0.2589,0.2791,0.2791,0.2791,0.2888,0.2891,0.2893,0.2956,0.2955,0.2954,0.2953,0.2667,0.2659,0.2651,0,0,0,0,0,0,0,0,0,0,0,0,0,0.2692,0.2591,0.2791,0.2822,0.2825,0.2887,0.2891,0.2894,0.2957,0.2955,0.2953,0.2952,0.267,0.266,0.265,0.262,0,0,0.2619,0.2615,0,0,0,0,0,0,0,0,0.2686,0.2702,0.2818,0.282,0.2823,0.2894,0.2711,0.2778,0.2957,0.2923,0.2953,0.2951,0.2696,0.2684,0.2734,0.2606,0.2594,0.2618,0.2612,0.2608,0.2605,0,0,0,0,0,0,0,0.2679,0.2697,0.2846,0.2817,0.282,0.2803,0.282,0.2727,0.2823,0.2926,0.2927,0.2913,0.2697,0.2745,0.2726,0.259,0.2619,0.261,0.2604,0.26,0.2482,0.2485,0,0,0,0,0,0,0.2642,0.2691,0.2842,0.2847,0.2731,0.2808,0.2826,0.2886,0.2832,0.2821,0.2914,0.2915,0.2762,0.2738,0.2716,0.2649,0.2608,0.2599,0.2593,0.2479,0.2483,0.2486,0,0,0,0,0,0,0.2638,0.2658,0.2838,0.2753,0.2773,0.2812,0.2879,0.2888,0.2928,0.2824,0.2809,0.294,0.276,0.273,0.2627,0.2637,0.2594,0.2585,0.2476,0.248,0.2484,0.2528,0,0,0,0,0,0,0.2634,0.2658,0.2723,0.2754,0.2776,0.2843,0.2879,0.2891,0.2914,0.2917,0.284,0.2814,0.2757,0.2643,0.2617,0.2623,0.2577,0.2472,0.2478,0.2483,0.2523,0.2533,0.2542,0,0,0,0,0,0.2627,0.2692,0.2728,0.2745,0.2857,0.2841,0.2853,0.2882,0.2916,0.292,0.2881,0.2816,0.2662,0.2634,0.2604,0.2607,0.2469,0.2476,0.2482,0.2518,0.2531,0.2542,0,0,0,0,0,0,0.2625,0.2705,0.2744,0.2833,0.2823,0.2844,0.2869,0.2885,0.2879,0.2881,0.2807,0.2777,0.2706,0.2661,0.2634,0.2606,0.2573,0.2573,0.2611,0.2622,0.2631,0.2677,0.2569,0,0,0,0,0,0.2659,0.2756,0.2762,0.2839,0.2831,0.2859,0.2873,0.2877,0.2855,0.286,0.2826,0.2786,0.272,0.2668,0.2616,0.2559,0.252,0.2565,0.2575,0.2583,0.261,0.2625,0.2638,0.2507,0.2507,0.2507,0,0,0.2672,0.2737,0.2788,0.2847,0.2864,0.2838,0.2868,0.2869,0.2867,0.2813,0.283,0.2796,0.2715,0.2676,0.2644,0.2624,0.2579,0.2591,0.2597,0.262,0.2633,0.2646,0.2656,0.2512,0.2511,0.251,0,0,0.2657,0.2805,0.2816,0.2827,0.2828,0.2848,0.2836,0.2857,0.289,0.2875,0.2854,0.284,0.2759,0.273,0.2688,0.272,0.263,0.271,0.2775,0.2789,0.2799,0.2808,0.2671,0.2667,0.2714,0.2714,0.2714,0,0.2668,0.2726,0.2802,0.2783,0.2801,0.2839,0.2798,0.2833,0.2832,0.2848,0.2875,0.2856,0.2798,0.2732,0.2782,0.2736,0.2688,0.2717,0.2798,0.2807,0.2815,0.2673,0.2669,0.2717,0.2717,0.2717,0.2716,0,0.2624,0.2673,0.2678,0.2711,0.2715,0.2721,0.2728,0.276,0.2829,0.2867,0.2878,0.287,0.2852,0.2858,0.2825,0.2853,0.2771,0.2801,0.2757,0.283,0.2675,0.267,0.2721,0.272,0.2719,0.2719,0,0,0.2668,0.2653,0.2675,0.2659,0.2706,0.2693,0.2699,0.2713,0.2724,0.2812,0.2833,0.2852,0.2907,0.2874,0.2854,0.291,0.2907,0.2904,0.2903,0.2743,0.283,0.261,0.2581,0.2958,0.296,0.2961,0.2657,0,0.2624,0.2577,0.2605,0.2577,0.2536,0.2602,0.2593,0.2616,0.269,0.2729,0.2795,0.2812,0.2884,0.2886,0.2955,0.2925,0.2914,0.298,0.2806,0.2798,0.2578,0.2578,0.2548,0.2266,0.2651,0.265,0.265,0,0.2571,0.2566,0.2505,0.2492,0.2487,0.2492,0.2539,0.2534,0.2581,0.2636,0.2712,0.2756,0.2812,0.2898,0.2901,0.2939,0.2899,0.2896,0.2884,0.2677,0.2574,0.2281,0.224,0.264,0.264,0.2641,0.2642,0,0.2532,0.2513,0.2485,0.2497,0.2461,0.2475,0.2497,0.2525,0.2537,0.2602,0.2632,0.2695,0.2732,0.2768,0.2791,0.2844,0.2773,0.281,0.2538,0.2514,0.2455,0.2423,0.2807,0.2808,0.2808,0.2809,0.281,0,0.2495,0.2476,0.2479,0.2465,0.2458,0.2445,0.2454,0.2479,0.2502,0.25,0.2603,0.2617,0.274,0.2718,0.2726,0.2582,0.2694,0.2528,0.2451,0.2454,0.2428,0.2767,0.2766,0.2797,0.28,0.2802,0.2804,0,0.2414,0.2417,0.2385,0.24,0.2411,0.2422,0.2458,0.2441,0.248,0.2477,0.25,0.2565,0.2519,0.2528,0.252,0.245,0.2359,0.227,0.2182,0.2102,0.2077,0.2083,0.1896,0.1886,0.1878,0.1871,0.1865,0,0.2327,0.2299,0.2361,0.2373,0.24,0.242,0.2397,0.2437,0.2421,0.2434,0.2407,0.2389,0.2332,0.2164,0.2098,0.1924,0.2083,0.1724,0.185,0.2054,0.1998,0.2017,0.2034,0.1735,0.1729,0.1723,0.1719,0,0.2199,0.227,0.2291,0.2313,0.2338,0.2329,0.2329,0.2301,0.2293,0.2272,0.2213,0.2176,0.2046,0.1877,0.1651,0.1586,0.1756,0.16,0.1884,0.1968,0.188,0.1832,0.1859,0.1673,0.1678,0.1681,0.1684,0.1686,0.2145,0.2172,0.2225,0.2248,0.2268,0.2211,0.2146,0.2112,0.203,0.1915,0.1971,0.183,0.1797,0.1417,0.1317,0.1242,0.1346,0.1309,0.1337,0.1368,0.1402,0.1306,0.0987,0.0988,0.0988,0.0989,0.0989,0,0.2019,0.2084,0.2123,0.2142,0.2108,0.2151,0.2045,0.1916,0.1752,0.1687,0.1594,0.1363,0.1213,0.1185,0.1014,0.091,0.1053,0.0865,0.111,0.1153,0.1192,0.1232,0.0763,0.0762,0.0761,0.076,0,0,0.1947,0.1955,0.1989,0.1943,0.1959,0.183,0.1732,0.1563,0.1452,0.1238,0.1134,0.1134,0.1143,0.0925,0.0889,0.081,0.0993,0.0786,0.0979,0.1315,0.1354,0.1457,0.1563,0,0,0,0,0]},{"header":{"parameterUnit":"m.s-1","parameterCategory":2,"la1":30.2991,"la2":30.254,"lo1":-89.0895,"lo2":-89.0444,"dy":0.0017,"dx":0.0017,"nx":28,"ny":28,"refTime":"2025-06-07T03:00:00:Z","depth":"2","parameterNumber":3,"parameterNumberName":"V-component_of_CURRENTS"},"data":[0,0,0,0,0,0,0,0,0,0,0,0,0,0,0,0,0,0,0,0,0,0,0,0,0,0,0,0,0,0,0,0,0,0,0,0,0,0,0,0,0,0,0,0,0,0,0,0,0,0,0,0,0,0,0,0,0,0,0.0137,0.0137,0,0.022,0.0222,0.0224,0.0265,0.0265,0.0264,0.0263,0.0308,0.031,0.0312,0,0,0,0,0,0,0,0,0,0,0,0,0,-0.0106,-0.01,0.0137,0.0137,0.0137,0.022,0.0222,0.0224,0.0266,0.0265,0.0264,0.0263,0.0307,0.031,0.0312,0,0,0,0,0,0,0,0,0,0,0,0,0,-0.0001,-0.0098,0.0137,0.0161,0.0163,0.022,0.0222,0.0225,0.0266,0.0264,0.0263,0.0262,0.0307,0.031,0.0312,0.0355,0,0,0.0321,0.0323,0,0,0,0,0,0,0,0,-0.0006,0.001,0.0157,0.0159,0.0162,0.0223,0.0153,0.0263,0.0266,0.0236,0.0263,0.0262,0.0271,0.0277,0.0309,0.0357,0.0359,0.0322,0.0324,0.0325,0.0326,0,0,0,0,0,0,0,-0.0014,0.0005,0.0179,0.0157,0.016,0.0126,0.0142,0.0174,0.0266,0.0239,0.024,0.0235,0.0273,0.0306,0.031,0.036,0.0322,0.0324,0.0326,0.0327,0.0426,0.0427,0,0,0,0,0,0,-0.0033,0.0,0.0176,0.0181,0.0063,0.0132,0.015,0.0212,0.0267,0.0271,0.0236,0.0237,0.0302,0.0306,0.0311,0.0368,0.0325,0.0328,0.0329,0.0426,0.0427,0.0428,0,0,0,0,0,0,-0.0037,-0.0015,0.0173,0.008,0.01,0.0137,0.0207,0.0214,0.0248,0.0263,0.0269,0.026,0.0301,0.0307,0.0355,0.0369,0.0329,0.0332,0.0425,0.0426,0.0427,0.0479,0,0,0,0,0,0,-0.0043,-0.0015,0.0029,0.0081,0.0104,0.0191,0.0207,0.0217,0.0242,0.0245,0.0286,0.0289,0.03,0.0351,0.0358,0.0373,0.0334,0.0423,0.0425,0.0427,0.0476,0.0482,0.0487,0,0,0,0,0,-0.0051,0.0017,0.0033,0.0052,0.0166,0.019,0.02,0.0224,0.0244,0.0254,0.0302,0.0288,0.0365,0.0356,0.0363,0.0379,0.0423,0.0425,0.0427,0.0474,0.0481,0.0487,0,0,0,0,0,0,-0.0077,0.0028,0.0046,0.0141,0.015,0.0193,0.0215,0.0231,0.0282,0.0293,0.0318,0.0325,0.0368,0.0368,0.0357,0.0409,0.0384,0.0388,0.0417,0.0424,0.0429,0.048,0.0336,0,0,0,0,0,-0.0061,0.0036,0.0073,0.0144,0.0154,0.0187,0.0205,0.0216,0.0257,0.028,0.0327,0.0361,0.0385,0.04,0.0427,0.0468,0.0439,0.0475,0.048,0.0485,0.0531,0.0522,0.0531,0.0434,0.0434,0.0434,0,0,-0.007,0.0015,0.0055,0.0145,0.0169,0.0192,0.0199,0.0225,0.0266,0.0276,0.0376,0.039,0.0401,0.0448,0.0464,0.0448,0.0478,0.0487,0.0491,0.0536,0.0525,0.0534,0.0543,0.0435,0.0435,0.0435,0,0,-0.0049,0.005,0.0111,0.0135,0.0173,0.0202,0.0206,0.026,0.0307,0.0383,0.0395,0.0432,0.0494,0.0506,0.0514,0.0566,0.051,0.0551,0.0622,0.0611,0.062,0.0627,0.0519,0.0517,0.055,0.055,0.055,0,-0.0065,0.0042,0.0113,0.016,0.0185,0.0207,0.0228,0.0283,0.0354,0.0405,0.0417,0.0527,0.053,0.0574,0.0597,0.0581,0.0537,0.0595,0.0619,0.0626,0.0633,0.0522,0.0519,0.0552,0.0552,0.0552,0.0552,0,-0.0011,0.0053,0.0086,0.0183,0.021,0.0237,0.0292,0.035,0.0419,0.0477,0.057,0.0604,0.066,0.0651,0.0654,0.0694,0.0627,0.0627,0.0605,0.0646,0.0524,0.052,0.0556,0.0555,0.0555,0.0554,0,0,0.0021,0.0106,0.0126,0.0149,0.0229,0.0258,0.0336,0.0414,0.0479,0.0576,0.0666,0.0734,0.0763,0.0776,0.0763,0.0775,0.0749,0.0737,0.0735,0.0632,0.0656,0.0681,0.0677,0.0756,0.0757,0.0759,0.052,0,0.0037,0.0114,0.0174,0.0225,0.0243,0.0304,0.0373,0.045,0.0543,0.0642,0.0707,0.0786,0.0801,0.0821,0.0843,0.0793,0.0756,0.081,0.0633,0.0626,0.0649,0.0683,0.0657,0.0454,0.0516,0.0515,0.0515,0,0.0084,0.013,0.0172,0.024,0.026,0.0311,0.0432,0.0493,0.0616,0.0692,0.0792,0.0843,0.0898,0.0896,0.0852,0.0886,0.0788,0.0737,0.0726,0.0753,0.065,0.044,0.0444,0.0507,0.0507,0.0508,0.0509,0,0.0072,0.0147,0.019,0.0213,0.0279,0.0339,0.0402,0.0517,0.06,0.0728,0.0805,0.0871,0.0916,0.0866,0.082,0.0819,0.0745,0.0697,0.0602,0.0595,0.0549,0.054,0.0641,0.0641,0.0641,0.0642,0.0643,0,0.0094,0.0133,0.0192,0.0208,0.0282,0.0335,0.0442,0.0518,0.0636,0.0735,0.0833,0.092,0.093,0.0914,0.0817,0.0727,0.0724,0.0638,0.0576,0.0556,0.0551,0.0604,0.0603,0.0633,0.0635,0.0637,0.0638,0,0.0086,0.0118,0.016,0.0232,0.0266,0.0331,0.0473,0.0546,0.0654,0.0781,0.0829,0.0956,0.0942,0.0898,0.079,0.0726,0.0614,0.0556,0.0504,0.0447,0.0435,0.0439,0.0393,0.0393,0.0392,0.0392,0.0392,0,0.0101,0.0102,0.017,0.0217,0.0269,0.0366,0.0427,0.0547,0.0631,0.0806,0.0861,0.0925,0.097,0.0842,0.0738,0.0547,0.0565,0.0412,0.0448,0.0486,0.0428,0.0432,0.0436,0.0322,0.0321,0.032,0.032,0,0.0106,0.0124,0.0159,0.0227,0.0311,0.039,0.0497,0.0558,0.0689,0.0793,0.0914,0.0962,0.0903,0.0786,0.0614,0.05,0.0462,0.0396,0.0455,0.0444,0.0417,0.0361,0.0367,0.0315,0.0315,0.0316,0.0316,0.0316,0.0128,0.0153,0.0188,0.0269,0.035,0.0426,0.049,0.0583,0.0689,0.0826,0.0875,0.0921,0.0841,0.0615,0.0501,0.04,0.0391,0.0321,0.0323,0.0325,0.0416,0.0398,0.0299,0.0299,0.03,0.03,0.03,0,0.0156,0.0183,0.0238,0.0331,0.0406,0.045,0.0542,0.0589,0.0688,0.0767,0.0844,0.0737,0.0639,0.0557,0.0386,0.0292,0.0284,0.0275,0.0266,0.0271,0.0274,0.0365,0.0232,0.0232,0.0232,0.0232,0,0,0.0179,0.0211,0.0223,0.0351,0.043,0.0523,0.0565,0.0614,0.0665,0.0703,0.0719,0.0731,0.0637,0.0494,0.0383,0.0308,0.0315,0.0298,0.0352,0.0357,0.0363,0.0292,0.0435,0,0,0,0,0]}],[{"header":{"parameterUnit":"m.s-1","parameterCategory":2,"la1":30.2991,"la2":30.254,"lo1":-89.0895,"lo2":-89.0444,"dy":0.0017,"dx":0.0017,"nx":28,"ny":28,"refTime":"2025-06-07T03:00:00:Z","depth":"4","parameterNumber":2,"parameterNumberName":"U-component_of_CURRENTS"},"data":[0,0,0,0,0,0,0,0,0,0,0,0,0,0,0,0,0,0,0,0,0,0,0,0,0,0,0,0,0,0,0,0,0,0,0,0,0,0,0,0,0,0,0,0,0,0,0,0,0,0,0,0,0,0,0,0,0,0,-0.0326,-0.0325,0,-0.0271,-0.0271,-0.0271,-0.026,-0.0259,-0.0258,-0.0258,0.0093,0.0101,0.011,0,0,0,0,0,0,0,0,0,0,0,0,0,-0.0337,-0.0338,-0.0327,-0.0325,-0.0323,-0.0271,-0.0271,-0.0271,-0.026,-0.0259,-0.0258,-0.0257,0.009,0.01,0.0111,0,0,0,0,0,0,0,0,0,0,0,0,0,-0.0323,-0.0339,-0.0327,-0.0303,-0.0299,-0.0271,-0.0271,-0.0271,-0.026,-0.0259,-0.0258,-0.0257,0.0086,0.0099,0.0112,0.0174,0,0,0.0152,0.0158,0,0,0,0,0,0,0,0,-0.0324,-0.0324,-0.0308,-0.0304,-0.03,-0.0261,-0.0146,-0.0104,-0.026,-0.0287,-0.0258,-0.0257,0.0009,0.0028,0.0016,0.019,0.0205,0.0153,0.0161,0.0167,0.0171,0,0,0,0,0,0,0,-0.0325,-0.0326,-0.0316,-0.0306,-0.0301,-0.0264,-0.0263,-0.014,-0.0148,-0.0284,-0.028,-0.0256,0.0011,0.0003,0.0025,0.0211,0.0153,0.0165,0.0173,0.0178,0.0414,0.0413,0,0,0,0,0,0,-0.0315,-0.0328,-0.0317,-0.0313,-0.0297,-0.0264,-0.0264,-0.0284,-0.0156,-0.0135,-0.0257,-0.0256,-0.002,0.001,0.0038,0.0127,0.0167,0.0179,0.0187,0.0416,0.0414,0.0412,0,0,0,0,0,0,-0.0316,-0.0317,-0.032,-0.0307,-0.0303,-0.0264,-0.0287,-0.0283,-0.0265,-0.0137,-0.0112,-0.024,-0.0018,0.002,0.0173,0.0141,0.0185,0.0197,0.0418,0.0415,0.0413,0.0302,0,0,0,0,0,0,-0.0318,-0.0319,-0.0336,-0.0308,-0.0303,-0.0296,-0.0287,-0.0282,-0.0248,-0.0246,-0.0112,-0.0082,-0.0015,0.0153,0.0186,0.016,0.0207,0.042,0.0417,0.0414,0.0308,0.0296,0.0286,0,0,0,0,0,-0.0319,-0.0335,-0.0339,-0.0336,-0.0329,-0.0295,-0.0291,-0.0266,-0.0247,-0.0247,-0.0142,-0.0085,0.0154,0.0165,0.0204,0.018,0.0421,0.0417,0.0414,0.0312,0.0298,0.0287,0,0,0,0,0,0,-0.0339,-0.0334,-0.0337,-0.0351,-0.0322,-0.0288,-0.0283,-0.0253,-0.0182,-0.0159,-0.005,-0.0011,0.0063,0.016,0.0169,0.0229,0.0276,0.028,0.0184,0.0173,0.0162,0.0246,0.0218,0,0,0,0,0,-0.0354,-0.0378,-0.0347,-0.0358,-0.0349,-0.0315,-0.0296,-0.0268,-0.0195,-0.0167,-0.0067,0.0025,0.007,0.0161,0.0211,0.0327,0.0352,0.0316,0.0305,0.0295,0.0385,0.0341,0.0334,0.04,0.04,0.0401,0,0,-0.0358,-0.036,-0.0371,-0.0364,-0.0352,-0.0319,-0.0306,-0.0268,-0.0221,-0.0126,-0.0029,-0.0008,0.0079,0.0136,0.0183,0.0239,0.0271,0.0291,0.0283,0.038,0.0336,0.033,0.0325,0.0398,0.0398,0.0399,0,0,-0.0364,-0.0391,-0.0404,-0.0381,-0.0343,-0.0315,-0.0295,-0.0241,-0.0211,-0.01,-0.0089,-0.0049,0.0102,0.0116,0.0152,0.014,0.0175,0.0123,0.0206,0.0157,0.0152,0.0149,0.0093,0.0086,0.0166,0.0166,0.0166,0,-0.0362,-0.0379,-0.0394,-0.0381,-0.034,-0.0307,-0.0264,-0.0236,-0.0129,-0.0073,-0.0065,0.0044,0.0086,0.0141,0.0112,0.0118,0.0108,0.0242,0.0144,0.0141,0.014,0.0085,0.0079,0.016,0.0161,0.0162,0.0162,0,-0.0365,-0.0365,-0.0364,-0.0346,-0.0311,-0.0269,-0.0212,-0.016,-0.0103,-0.0052,0.0013,0.0043,0.0139,0.0078,0.0122,0.0111,0.0103,0.0084,0.0177,0.0127,0.0071,0.0066,0.0152,0.0154,0.0156,0.0157,0,0,-0.0377,-0.0367,-0.0365,-0.0335,-0.0276,-0.0238,-0.0165,-0.0076,-0.0005,0.0052,0.0136,0.0145,0.0171,0.0213,0.0195,0.0174,0.0079,0.0162,0.0161,0.0113,-0.0025,0.0037,0.0038,0.0038,0.0038,0.0039,-0.0088,0,-0.0361,-0.0341,-0.0323,-0.0253,-0.0222,-0.0155,-0.0085,0.0002,0.0074,0.0156,0.017,0.0227,0.0215,0.0239,0.0214,0.0113,0.0079,0.0118,0.0036,0.0035,0.01,0.004,0.004,-0.0091,-0.0092,-0.0093,-0.0094,0,-0.0352,-0.0338,-0.0289,-0.0194,-0.0171,-0.0103,0.0033,0.0103,0.021,0.0266,0.0344,0.0361,0.0371,0.0326,0.0224,0.0254,0.0152,0.0057,0.0048,0.0181,0.0093,-0.0009,-0.0101,-0.01,-0.01,-0.0099,-0.0099,0,-0.0357,-0.0293,-0.0252,-0.0223,-0.0126,-0.0049,0.0035,0.0156,0.0211,0.0347,0.0379,0.0435,0.0415,0.0345,0.0189,0.0219,0.0012,0.0011,-0.0033,-0.0034,-0.0002,0.0004,-0.0068,-0.0067,-0.0067,-0.0067,-0.0066,0,-0.0329,-0.0294,-0.0241,-0.0218,-0.0125,-0.003,0.0085,0.0181,0.0289,0.0335,0.0441,0.0426,0.0415,0.0303,0.0199,0.007,0.0018,0.0015,-0.0041,-0.006,-0.0058,-0.0011,-0.0003,-0.0072,-0.007,-0.007,-0.0069,0,-0.0333,-0.0313,-0.0276,-0.0181,-0.0136,-0.0063,0.0078,0.0153,0.0269,0.032,0.036,0.0395,0.0324,0.0251,0.0081,0.0056,-0.0075,-0.0136,-0.0168,-0.0233,-0.0077,-0.0074,-0.0092,-0.009,-0.0089,-0.0087,-0.0087,0,-0.033,-0.0313,-0.0285,-0.0262,-0.0207,-0.0094,-0.002,0.0127,0.0178,0.0253,0.024,0.0242,0.0255,0.008,0.0006,-0.0102,-0.0134,-0.0181,-0.0044,-0.0015,-0.0071,-0.0069,-0.0067,-0.0084,-0.0084,-0.0084,-0.0083,0,-0.0312,-0.0331,-0.0324,-0.0306,-0.0238,-0.0166,-0.0054,-0.0022,0.0119,0.0171,0.0197,0.0225,0.014,0.0101,0.0012,-0.0102,-0.0102,-0.0166,-0.0166,-0.0037,-0.0008,-0.0063,-0.0063,-0.0079,-0.0079,-0.008,-0.008,0,-0.0314,-0.033,-0.0349,-0.0313,-0.027,-0.0201,-0.0145,-0.0053,0.0023,0.0142,0.0091,0.0104,0.0107,0.0084,-0.0056,-0.0063,-0.0009,0.0012,0.0004,-0.0002,0.0094,0.0149,0.0106,0,0,0,0,0,-0.0285,-0.0298,-0.032,-0.0299,-0.0278,-0.0224,-0.0149,-0.0097,-0.001,0.0034,0.0113,0.0067,0.008,0.0025,0.0045,-0.0041,-0.0057,-0.0021,-0.0048,-0.0052,-0.0058,0.0051,0,0,0,0,0,0,-0.026,-0.0287,-0.0329,-0.0291,-0.0259,-0.0204,-0.0142,-0.0093,-0.0055,0.0024,0.0008,0.0086,0.0045,0.0079,0.0047,0.004,0.0032,-0.0018,-0.0017,-0.0049,-0.0054,-0.0059,0.0051,0,0,0,0,0]},{"header":{"parameterUnit":"m.s-1","parameterCategory":2,"la1":30.2991,"la2":30.254,"lo1":-89.0895,"lo2":-89.0444,"dy":0.0017,"dx":0.0017,"nx":28,"ny":28,"refTime":"2025-06-07T03:00:00:Z","depth":"4","parameterNumber":3,"parameterNumberName":"V-component_of_CURRENTS"},"data":[0,0,0,0,0,0,0,0,0,0,0,0,0,0,0,0,0,0,0,0,0,0,0,0,0,0,0,0,0,0,0,0,0,0,0,0,0,0,0,0,0,0,0,0,0,0,0,0,0,0,0,0,0,0,0,0,0,0,0.035,0.0351,0,0.0383,0.0383,0.0383,0.0405,0.0406,0.0406,0.0407,0.0262,0.0258,0.0253,0,0,0,0,0,0,0,0,0,0,0,0,0,0.0285,0.0285,0.035,0.0351,0.0352,0.0383,0.0383,0.0383,0.0405,0.0406,0.0406,0.0407,0.0263,0.0258,0.0253,0,0,0,0,0,0,0,0,0,0,0,0,0,0.031,0.0286,0.035,0.037,0.0373,0.0383,0.0383,0.0383,0.0405,0.0406,0.0407,0.0407,0.0265,0.0259,0.0252,0.0192,0,0,0.0232,0.0229,0,0,0,0,0,0,0,0,0.0309,0.0312,0.0366,0.0369,0.0372,0.0395,0.0308,0.0312,0.0404,0.0387,0.0407,0.0408,0.0293,0.0284,0.0283,0.0185,0.0179,0.0231,0.0227,0.0224,0.0222,0,0,0,0,0,0,0,0.0307,0.031,0.0358,0.0367,0.0371,0.0371,0.0375,0.0309,0.0327,0.0389,0.0392,0.0403,0.0292,0.029,0.0279,0.0177,0.0231,0.0225,0.0221,0.0219,0.0017,0.0016,0,0,0,0,0,0,0.0313,0.0309,0.0357,0.0359,0.0348,0.0372,0.0376,0.0383,0.0331,0.0328,0.0402,0.0404,0.0301,0.0287,0.0274,0.02,0.0224,0.0218,0.0214,0.0019,0.0017,0.0016,0,0,0,0,0,0,0.0312,0.0317,0.0355,0.0339,0.0345,0.0373,0.0379,0.0383,0.0391,0.0345,0.0337,0.0409,0.0301,0.0284,0.0211,0.0194,0.0215,0.0209,0.002,0.0018,0.0016,0.005,0,0,0,0,0,0,0.0309,0.0316,0.0326,0.0339,0.0346,0.0369,0.0379,0.0383,0.0399,0.0401,0.0347,0.0335,0.03,0.0222,0.0205,0.0185,0.0204,0.0022,0.0019,0.0017,0.005,0.0049,0.0048,0,0,0,0,0,0.0307,0.0314,0.0326,0.0332,0.0358,0.037,0.0372,0.0392,0.0398,0.0401,0.0355,0.0337,0.0194,0.0215,0.0195,0.0174,0.0023,0.002,0.0017,0.0051,0.0049,0.0048,0,0,0,0,0,0,0.0306,0.0318,0.0331,0.0347,0.0363,0.0376,0.0394,0.0393,0.0363,0.0358,0.0312,0.0295,0.0224,0.0189,0.0214,0.0107,0.0108,0.0101,0.014,0.0138,0.0137,0.0147,0.0198,0,0,0,0,0,0.0308,0.0314,0.033,0.035,0.0361,0.0375,0.0385,0.0387,0.0367,0.0358,0.0312,0.0255,0.0194,0.0162,0.01,0.0037,0.0027,0.0011,0.001,0.001,0.0004,-0.0037,-0.0042,0.0006,0.0006,0.0006,0,0,0.0316,0.0328,0.0333,0.035,0.0371,0.0371,0.0383,0.0396,0.0378,0.0338,0.0291,0.0242,0.0174,0.0108,0.0075,0.0079,-0.0002,0.0006,0.0006,-0.0,-0.0041,-0.0045,-0.0049,0.0004,0.0004,0.0004,0,0,0.0337,0.0348,0.036,0.0364,0.0385,0.0379,0.0382,0.0378,0.0366,0.0309,0.0276,0.0215,0.0127,0.0079,0.0043,-0.0008,-0.0011,-0.0021,-0.0017,-0.0056,-0.0059,-0.0063,-0.0041,-0.0043,-0.0016,-0.0016,-0.0016,0,0.0344,0.0363,0.0368,0.0378,0.0381,0.0381,0.0381,0.0362,0.0324,0.03,0.0294,0.0162,0.0109,0.003,0.002,-0.0011,-0.0007,0.0,-0.0054,-0.0058,-0.0062,-0.004,-0.0042,-0.0015,-0.0015,-0.0015,-0.0015,0,0.0361,0.0381,0.0394,0.0394,0.039,0.0394,0.0367,0.0341,0.0315,0.0286,0.0206,0.0133,0.0066,0.0036,0.0011,-0.0047,-0.0023,-0.005,-0.0041,-0.0065,-0.0039,-0.0042,-0.0013,-0.0014,-0.0014,-0.0014,0,0,0.0367,0.0394,0.0409,0.0413,0.0393,0.0392,0.0351,0.0315,0.0294,0.023,0.0184,0.0085,0.0066,0.0023,-0.0016,-0.0055,-0.0067,-0.0054,-0.0057,-0.0014,-0.01,-0.0101,-0.0104,-0.0095,-0.0096,-0.0097,-0.0054,0,0.0385,0.0416,0.041,0.0418,0.0421,0.0389,0.0358,0.0313,0.0268,0.0214,0.0135,0.0085,0.0057,0.004,-0.0012,-0.0084,-0.0081,-0.0073,-0.0101,-0.0101,-0.0086,-0.0111,-0.0102,-0.0056,-0.0057,-0.0058,-0.0058,0,0.0399,0.0418,0.0442,0.0431,0.0432,0.0427,0.0378,0.035,0.0271,0.0237,0.0168,0.0114,0.0028,0.0023,-0.0079,-0.0067,-0.0063,-0.0099,-0.0099,-0.012,-0.0111,-0.0043,-0.0064,-0.0063,-0.0063,-0.0063,-0.0062,0,0.0407,0.0431,0.0456,0.0453,0.0438,0.0439,0.0429,0.0368,0.0342,0.0275,0.0234,0.0133,0.0076,0.0022,-0.0048,-0.0055,-0.0141,-0.0161,-0.0139,-0.0136,-0.0158,-0.0155,-0.0178,-0.0178,-0.0178,-0.0178,-0.0178,0,0.04,0.0424,0.0477,0.049,0.05,0.0483,0.0482,0.045,0.0399,0.033,0.0273,0.0169,0.0072,-0.0004,-0.0041,-0.011,-0.0123,-0.0141,-0.0143,-0.0139,-0.0135,-0.0156,-0.0154,-0.0176,-0.0177,-0.0177,-0.0177,0,0.0382,0.043,0.0462,0.0497,0.0512,0.0525,0.0537,0.0513,0.0483,0.0385,0.0368,0.0207,0.0081,0.0027,-0.0074,-0.0099,-0.0153,-0.0137,-0.0083,-0.0082,-0.0111,-0.0108,-0.0139,-0.0139,-0.014,-0.014,-0.014,0,0.0371,0.0398,0.0482,0.0513,0.0538,0.057,0.0573,0.0563,0.0489,0.036,0.0257,0.0166,0.0053,-0.0066,-0.0136,-0.0148,-0.0143,-0.0113,-0.0161,-0.0117,-0.0116,-0.0113,-0.011,-0.014,-0.014,-0.014,-0.014,0,0.0329,0.0388,0.0408,0.0499,0.0538,0.0549,0.0525,0.0486,0.0404,0.0383,0.0184,0.0119,-0.0021,-0.0124,-0.0082,-0.0119,-0.0133,-0.0114,-0.0115,-0.016,-0.0118,-0.0116,-0.0113,-0.014,-0.014,-0.014,-0.014,0,0.0302,0.0307,0.0377,0.044,0.0505,0.0492,0.0497,0.0395,0.0355,0.02,0.0115,0.001,-0.0062,-0.0111,-0.0132,-0.0116,-0.0137,-0.0116,-0.0117,-0.0117,-0.0139,-0.0083,-0.0103,0,0,0,0,0,0.025,0.0255,0.0308,0.0367,0.0442,0.0477,0.0424,0.0396,0.0306,0.0181,0.0166,0.0041,-0.0024,-0.0108,-0.0092,-0.015,-0.0133,-0.0133,-0.0107,-0.0142,-0.0141,-0.0174,0,0,0,0,0,0,0.0211,0.0245,0.0271,0.0316,0.0357,0.0392,0.0376,0.0312,0.0211,0.0137,0.0087,0.007,-0.0011,-0.0005,-0.008,-0.009,-0.0068,-0.017,-0.0169,-0.0142,-0.0141,-0.0141,-0.0175,0,0,0,0,0]}]]